Regional Weather Roundup
Issued by NWS

Home | Current Version | Previous Version | Graphics & Text | Print | Product List | Glossary On
Versions: 1 2 3 4 5 6 7 8 9 10 11 12 13 14 15 16 17 18 19 20 21 22 23 24 25 26 27 28 29 30 31 32 33 34 35 36 37 38 39 40 41 42 43 44 45 46 47 48 49 50
000
ASUS43 KMKX 310011
RWRWI

WISCONSIN REGIONAL WEATHER ROUNDUP
NATIONAL WEATHER SERVICE MILWAUKEE/SULLIVAN WI
700 PM CDT WED JUL 30 2014

NOTE: "FAIR" INDICATES FEW OR NO CLOUDS BELOW 12,000 FEET WITH NO
SIGNIFICANT WEATHER AND/OR OBSTRUCTIONS TO VISIBILITY.

WIZ001-002-006>008-014>016-023>028-310100-
NORTHWEST WISCONSIN

CITY           SKY/WX    TMP DP  RH WIND       PRES   REMARKS
SUPERIOR ARPT  SUNNY     76  59  54 NW8       29.96R
6HR MIN TEMP:  70; 6HR MAX TEMP:  80; 6HR PCP:  0.02;

ASHLAND        MOSUNNY   69  61  75 SW6       29.97F
6HR MIN TEMP:  68; 6HR MAX TEMP:  75;

HAYWARD        PTSUNNY   71  61  70 SW6       30.00R
6HR MIN TEMP:  67; 6HR MAX TEMP:  73; 6HR PCP: TRACE;

SIREN          SUNNY     76  57  52 NW9       30.01R
6HR MIN TEMP:  74; 6HR MAX TEMP:  79;

RICE LAKE      MOSUNNY   67  62  85 SE3       30.02F
6HR MIN TEMP:  64; 6HR MAX TEMP:  77; 6HR PCP:  0.16;

LADYSMITH      MOSUNNY   70  59  67 W10       30.02F
6HR MIN TEMP:  69; 6HR MAX TEMP:  74;

EAU CLAIRE     TSTM      75  59  57 W6        30.00S
6HR MIN TEMP:  72; 6HR MAX TEMP:  79;

MENOMONIE      PTCLDY    76  58  54 W5        30.02R
6HR MIN TEMP:  74; 6HR MAX TEMP:  79;

NEW RICHMOND   SUNNY     74  56  52 W6        30.02S
6HR MIN TEMP:  70; 6HR MAX TEMP:  78;

OSCEOLA        SUNNY     76  58  53 W7        30.04S
6HR MIN TEMP:  74; 6HR MAX TEMP:  79;

$$

WIZ003>005-009-010-017-018-310100-
NORTH CENTRAL WISCONSIN

CITY           SKY/WX    TMP DP  RH WIND       PRES   REMARKS
WOODRUFF       PTSUNNY   70  58  65 NW7       29.98S
6HR MIN TEMP:  69; 6HR MAX TEMP:  77;

RHINELANDER    PTSUNNY   68  55  63 SW7       29.99F
6HR MIN TEMP:  67; 6HR MAX TEMP:  73;

EAGLE RIVER    HVY RAIN  57  56  95 S3        30.00R VSB 1/2
6HR MIN TEMP:  57; 6HR MAX TEMP:  71; 6HR PCP:  0.34;

LAND O LAKES   LGT RAIN  58  57  95 CALM      30.01S
6HR MIN TEMP:  57; 6HR MAX TEMP:  73; 6HR PCP:  0.32;

PHILLIPS       RAIN      67  60  76 CALM      29.99S
6HR MIN TEMP:  67; 6HR MAX TEMP:  72;

TOMAHAWK       LGT RAIN  63  58  84 CALM      30.00F
6HR MIN TEMP:  63; 6HR MAX TEMP:  71; 6HR PCP:  0.04;

MEDFORD        SUNNY     68  57  68 W3        30.01F
6HR MIN TEMP:  67; 6HR MAX TEMP:  71;

MERRILL        PTSUNNY   69  55  62 W7        29.99F
6HR MIN TEMP:  69; 6HR MAX TEMP:  73;

$$

WIZ029-030-035-036-043>047-310100-
CENTRAL WISCONSIN

CITY           SKY/WX    TMP DP  RH WIND       PRES   REMARKS
WAUSAU         SUNNY     72  52  49 W12       29.98F
6HR MIN TEMP:  70; 6HR MAX TEMP:  74;

MOSINEE        MOSUNNY   72  54  53 W10G18    30.01F
MARSHFIELD     MOSUNNY   70  57  63 W6        30.01F
6HR MIN TEMP:  70; 6HR MAX TEMP:  75;

STEVENS POINT  SUNNY     70  52  51 W7        30.00F
6HR MIN TEMP:  70; 6HR MAX TEMP:  74;

WAUPACA        SUNNY     75  47  37 W7        29.99S
6HR MIN TEMP:  74; 6HR MAX TEMP:  79;

WAUTOMA        MOSUNNY   75  51  42 W9        30.00F
6HR MIN TEMP:  74; 6HR MAX TEMP:  79;

WISC RAPIDS    MOSUNNY   72  53  51 W5        30.02F
6HR MIN TEMP:  72; 6HR MAX TEMP:  77;

CAMP DOUGLAS   PTSUNNY   72  61  68 W5        30.02F
$$

WIZ011>013-019>022-031-037>040-048>050-310100-
NORTHEAST WISCONSIN

CITY           SKY/WX    TMP DP  RH WIND       PRES   REMARKS
ANTIGO         MOSUNNY   66  54  64 W6        29.99F
6HR MIN TEMP:  66; 6HR MAX TEMP:  71;

STURGEON BAY   MOSUNNY   64  52  63 S9        29.98S
6HR MIN TEMP:  64; 6HR MAX TEMP:  72;

GREEN BAY      MOSUNNY   71  53  52 W6        29.97F
6HR MIN TEMP:  70; 6HR MAX TEMP:  76;

MANITOWOC      MOSUNNY   63  51  65 S7        30.00F
6HR MIN TEMP:  63; 6HR MAX TEMP:  68;

APPLETON       MOSUNNY   72  46  40 W8        29.98F
CLINTONVILLE   SUNNY     73  48  40 W7        29.98S
OSHKOSH        SUNNY     73  51  46 W6        29.98F
6HR MIN TEMP:  70; 6HR MAX TEMP:  75;

$$

WIZ032>034-041-042-053>061-310100-
SOUTHWEST WISCONSIN

CITY           SKY/WX    TMP DP  RH WIND       PRES   REMARKS
LA CROSSE      SUNNY     77  58  51 SW3       30.01F
6HR MIN TEMP:  74; 6HR MAX TEMP:  80;

SPARTA         SUNNY     73  57  56 CALM      30.02F
6HR MIN TEMP:  69; 6HR MAX TEMP:  76;

VIROQUA        FAIR      72  60  65 CALM      30.04F
6HR MIN TEMP:  72; 6HR MAX TEMP:  75;

BOSCOBEL       SUNNY     77  56  48 CALM      30.03F
6HR MIN TEMP:  77; 6HR MAX TEMP:  83;

PRAIRIE DU CHI SUNNY     77  54  45 NW5       30.03S
6HR MIN TEMP:  76; 6HR MAX TEMP:  79;

PLATTEVILLE    FAIR      74  55  50 NW6       30.05S
6HR MIN TEMP:  74; 6HR MAX TEMP:  78;

$$

WIZ056-057-062-063-064-067-068-310100-
SOUTH CENTRAL WISCONSIN

CITY           SKY/WX    TMP DP  RH WIND       PRES   REMARKS
BARABOO/DELLS  SUNNY     72  49  44 W5        30.03S
6HR MIN TEMP:  71; 6HR MAX TEMP:  76;

LONE ROCK      SUNNY     77  54  44 NW7       30.02F
6HR MIN TEMP:  77; 6HR MAX TEMP:  83;

WATERTOWN      SUNNY     71  55  55 SW3       30.00F
6HR MIN TEMP:  68; 6HR MAX TEMP:  74;

MADISON        MOSUNNY   74  51  44 NW6       30.01F
6HR MIN TEMP:  71; 6HR MAX TEMP:  78;

MIDDLETON      FAIR      74  51  44 NW3       30.02F
6HR MIN TEMP:  72; 6HR MAX TEMP:  78;

MONROE         SUNNY     73  52  46 NW5       30.03S
JANESVILLE     SUNNY     75  52  43 NW6       30.01S
$$

WIZ051-052-058>065-066-070>072-310100-
SOUTHEAST WISCONSIN

CITY           SKY/WX    TMP DP  RH WIND       PRES   REMARKS
MILWAUKEE      MOSUNNY   68  53  58 SE7       30.01S
6HR MIN TEMP:  67; 6HR MAX TEMP:  69;

WAUKESHA       MOSUNNY   70  50  49 W8        30.02S
MILWAUKEE/TIMM SUNNY     72  54  53 SW3       30.01F
RACINE         SUNNY     67  50  54 E5        30.03S
6HR MIN TEMP:  67; 6HR MAX TEMP:  71;

BURLINGTON     SUNNY     69  52  55 NW6       30.01S
6HR MIN TEMP:  67; 6HR MAX TEMP:  73;

KENOSHA        SUNNY     66  56  70 E7        30.02S
6HR MIN TEMP:  66; 6HR MAX TEMP:  74;

FOND DU LAC    SUNNY     72  54  53 SW7       29.99F
6HR MIN TEMP:  70; 6HR MAX TEMP:  75;

SHEBOYGAN      SUNNY     68  54  60 SE6       29.99F
6HR MIN TEMP:  68; 6HR MAX TEMP:  74;

WEST BEND      SUNNY     72  46  40 W5        30.00F
JUNEAU         SUNNY     70  51  51 SW5       30.02S
6HR MIN TEMP:  68; 6HR MAX TEMP:  74;

$$

LSZ147-162-310100-
LAKE SUPERIOR

STATION/POSITION TIME  TEMP    WIND        PRES    WAVE
                       AIR SEA DIR/SP/G            HT/PER
                 (UTC) (F)     (DEG/KT/KT) (MB)    (FT/S)
W MID LAKE BUOY  2350   49 44  170/  8/  8 1014.1S   1/ 4
PORT WING        2300   72      CALM  /  2 1014.2F
SAXON HARBOR     2300          180/  5/ 11 1014.6S
$$

LMZ867-665-643>646-310100-
LAKE MICHIGAN

STATION/POSITION TIME  TEMP    WIND        PRES    WAVE
                       AIR SEA DIR/SP/G            HT/PER
                 (UTC) (F)     (DEG/KT/KT) (MB)    (FT/S)
N MID LAKE BUOY  2350   57 55  180/  6/  8 1014.4F   0
NORTHPORT PIER   2300   65     160/  7/ 11 1014.6F
SISTER BAY       2225   68     190/ 13/ 14   N/A
KEWAUNEE LAKESHO 2300   59     180/ 10/ 12 1015.4F
SHEBOYGAN LAKESH 0000   64     180/ 15/ 16 1015.7F
PORT WASHINGTON  2300   67     190/  3/  7 1016.9
ATWATER BUOY     0000   64     160/  6     1017.0F
MILWAUKEE LAKESH 2300   63     140/  3/  4   N/A
S MID LAKE BUOY  2350   62 62   60/  2/  2 1016.4F   1
KENOSHA   LAKESH 0000   65     170/  4/  6 1015.9F
$$

TC  - TEMPERATURE IN CELSIUS
VSB - VISIBILITY IN STATUTE MILES
WCI - WIND CHILL INDEX
HX  - HEAT INDEX



USA.gov is the U.S. government's official web portal to all federal, state and local government web resources and services.